Regional Weather Roundup
Issued by NWS Kansas City/Pleasant Hill, MO

Home | Current Version | Previous Version | Text Only | Print | Product List | Glossary On
Versions: 1 2 3 4 5 6 7 8 9 10 11 12 13 14 15 16 17 18 19 20 21 22 23 24 25 26 27 28 29 30 31 32 33 34 35 36 37 38 39 40 41 42 43 44 45 46 47 48 49 50
000
ASUS43 KEAX 300811
RWREAX

WEATHER ROUNDUP FOR EASTERN KANSAS AND NORTHWEST MISSOURI
NATIONAL WEATHER SERVICE KANSAS CITY/PLEASANT HILL MO
300 AM CDT MON MAR 30 2015

KSZ040-057-103>105-MOZ028-029-037-043-300900-
...KANSAS CITY METROPOLITAN AREA...

CITY           SKY/WX    TMP DP  RH WIND       PRES   REMARKS
K.C. INTL      CLEAR     44  33  65 SW8       30.17S
K.C. DOWNTOWN  CLEAR     43  36  76 CALM      30.18R
LEES SUMMIT    CLEAR     43  35  73 SW6       30.18S
OLATHE - IXD   CLEAR     40  33  76 SW3       30.19S
OLATHE - OJC   CLEAR     42  34  73 W5        30.17S
LAWRENCE       CLEAR     30  27  88 NW5       30.19F WCI  25

$$

MOZ001>008-011>017-020>025-030>033-038>040-044>046-053-054-300900-
...NORTHERN AND CENTRAL MISSOURI...

CITY           SKY/WX    TMP DP  RH WIND       PRES   REMARKS
ST. JOSEPH     NOT AVBL
MOSBY          MOSUNNY   32  32 100 CALM      30.17S
WARRENSBURG    CLEAR     36  32  87 CALM      30.17S
WHITEMAN AFB   CLEAR     39  34  82 W3        30.15S
CLINTON        CLEAR     37  36  93 CALM      30.18S
SEDALIA        CLEAR     44  34  67 W6        30.16S
WARSAW         NOT AVBL
MARSHALL       CLEAR     45  37  76 W3        30.17S
CHILLICOTHE      N/A     37  32  82 CALM      30.16R
MOBERLY        CLEAR     41  32  70 W7        30.15R
KIRKSVILLE     CLEAR     34  30  85 W6        30.14R WCI  29

$$

MOZ041-047>049-056>058-063>065-088>090-097-300900-
...EASTERN AND SOUTHERN MISSOURI...

CITY           SKY/WX    TMP DP  RH WIND       PRES   REMARKS
ST. LOUIS INTL CLEAR     45  37  73 W8        30.12S
SPIRIT OF STL  CLEAR     40  36  86 CALM      30.12S
COLUMBIA       CLEAR     44  36  73 W8        30.14S
JEFFERSON CITY CLEAR     38  35  89 W3        30.15S
MEXICO         CLEAR     46  39  76 NW7       30.13S
HANNIBAL       CLEAR     45  30  57 W5        30.13R
ROLLA          CLEAR     42  35  76 W6        30.12F
LEBANON        CLEAR     45  39  81 W5        30.17S
OSAGE BEACH    CLEAR     39  34  81 CALM      30.16R
SPRINGFIELD    CLEAR     37  35  92 CALM      30.16F
BRANSON        CLEAR     46  41  81 CALM      30.17F
NEVADA         CLEAR     41  37  87 CALM      30.19S
JOPLIN         CLEAR     44  38  79 E3        30.18F
WEST PLAINS    CLEAR     48  39  71 N5        30.15R

$$

IAZ060-094-KSZ022-034>040-054-083-096-NEZ052-066-093-300900-
...KANSAS...SOUTHEAST NEBRASKA AND IOWA...

CITY           SKY/WX    TMP DP  RH WIND       PRES   REMARKS
TOPEKA         CLEAR     37  32  82 CALM      30.19F
MANHATTAN      CLEAR     32  29  88 SW3       30.18F FOG
EMPORIA        CLEAR     41  33  73 W3        30.19S
CHANUTE        CLEAR     37  33  85 CALM      30.20R
WICHITA        CLEAR     42  32  67 CALM      30.20S
OMAHA          PTCLDY    38  26  62 S6        30.12R WCI  33
LINCOLN        CLEAR     34  25  69 S5        30.14F WCI  30
FALLS CITY     CLEAR     36  27  69 CALM      30.16R
LAMONI         PTCLDY    39  27  62 W6        30.12S WCI  35
DES MOINES     CLEAR     39  23  52 SW5       30.10S

$$



USA.gov is the U.S. government's official web portal to all federal, state and local government web resources and services.